Data supplied by UK-AIR on 5/4/2008
All Data GMT hour ending 
Status: R =Ratified P=Provisional,P*=As supplied
,,Walsall Alumwell,,,,,,,,,,,,,,,,,,,,,,,
Date,time,"Nitric oxide",status,unit,"Nitrogen dioxide",status,unit,"Nitrogen oxides as nitrogen dioxide",status,unit
 
01-01-1993,01:00,640,R,ugm-3,74,R,ugm-3,1052,R,ugm-3
01-01-1993,02:00,550,R,ugm-3,69,R,ugm-3,909,R,ugm-3
01-01-1993,03:00,605,R,ugm-3,67,R,ugm-3,991,R,ugm-3
01-01-1993,04:00,550,R,ugm-3,65,R,ugm-3,905,R,ugm-3
01-01-1993,05:00,553,R,ugm-3,61,R,ugm-3,905,R,ugm-3
01-01-1993,06:00,426,R,ugm-3,53,R,ugm-3,705,R,ugm-3
01-01-1993,07:00,364,R,ugm-3,69,R,ugm-3,625,R,ugm-3
01-01-1993,08:00,366,R,ugm-3,52,R,ugm-3,611,R,ugm-3
01-01-1993,09:00,375,R,ugm-3,52,R,ugm-3,625,R,ugm-3
01-01-1993,10:00,375,R,ugm-3,67,R,ugm-3,640,R,ugm-3
01-01-1993,11:00,203,R,ugm-3,65,R,ugm-3,374,R,ugm-3
01-01-1993,12:00,166,R,ugm-3,65,R,ugm-3,319,R,ugm-3
01-01-1993,13:00,151,R,ugm-3,65,R,ugm-3,296,R,ugm-3
01-01-1993,14:00,49,R,ugm-3,32,R,ugm-3,107,R,ugm-3
01-01-1993,15:00,53,R,ugm-3,29,R,ugm-3,109,R,ugm-3
01-01-1993,16:00,96,R,ugm-3,40,R,ugm-3,187,R,ugm-3
01-01-1993,17:00,71,R,ugm-3,36,R,ugm-3,145,R,ugm-3
01-01-1993,18:00,45,R,ugm-3,15,R,ugm-3,84,R,ugm-3
01-01-1993,19:00,36,R,ugm-3,15,R,ugm-3,71,R,ugm-3
01-01-1993,20:00,56,R,ugm-3,21,R,ugm-3,107,R,ugm-3
01-01-1993,21:00,46,R,ugm-3,17,R,ugm-3,88,R,ugm-3
01-01-1993,22:00,39,R,ugm-3,17,R,ugm-3,76,R,ugm-3
01-01-1993,23:00,35,R,ugm-3,17,R,ugm-3,71,R,ugm-3
01-01-1993,24:00,25,R,ugm-3,15,R,ugm-3,53,R,ugm-3
02-01-1993,01:00,15,R,ugm-3,34,R,ugm-3,57,R,ugm-3
02-01-1993,02:00,16,R,ugm-3,32,R,ugm-3,57,R,ugm-3
02-01-1993,03:00,14,R,ugm-3,38,R,ugm-3,59,R,ugm-3
02-01-1993,04:00,20,R,ugm-3,38,R,ugm-3,69,R,ugm-3
02-01-1993,05:00,28,R,ugm-3,32,R,ugm-3,74,R,ugm-3
02-01-1993,06:00,21,R,ugm-3,38,R,ugm-3,71,R,ugm-3
02-01-1993,07:00,24,R,ugm-3,40,R,ugm-3,76,R,ugm-3
02-01-1993,08:00,30,R,ugm-3,40,R,ugm-3,86,R,ugm-3
02-01-1993,09:00,48,R,ugm-3,42,R,ugm-3,115,R,ugm-3
02-01-1993,10:00,70,R,ugm-3,44,R,ugm-3,151,R,ugm-3
02-01-1993,11:00,76,R,ugm-3,42,R,ugm-3,159,R,ugm-3
02-01-1993,12:00,84,R,ugm-3,46,R,ugm-3,174,R,ugm-3
02-01-1993,13:00,109,R,ugm-3,48,R,ugm-3,214,R,ugm-3
02-01-1993,14:00,81,R,ugm-3,50,R,ugm-3,174,R,ugm-3
02-01-1993,15:00,66,R,ugm-3,50,R,ugm-3,151,R,ugm-3
02-01-1993,16:00,66,R,ugm-3,53,R,ugm-3,155,R,ugm-3
02-01-1993,17:00,80,R,ugm-3,55,R,ugm-3,178,R,ugm-3
02-01-1993,18:00,86,R,ugm-3,57,R,ugm-3,189,R,ugm-3
02-01-1993,19:00,90,R,ugm-3,57,R,ugm-3,195,R,ugm-3
02-01-1993,20:00,76,R,ugm-3,61,R,ugm-3,178,R,ugm-3
02-01-1993,21:00,58,R,ugm-3,57,R,ugm-3,145,R,ugm-3
02-01-1993,22:00,50,R,ugm-3,52,R,ugm-3,128,R,ugm-3
02-01-1993,23:00,43,R,ugm-3,55,R,ugm-3,120,R,ugm-3
02-01-1993,24:00,,,,,,,,,
03-01-1993,01:00,,,,,,,,,
03-01-1993,02:00,,,,,,,,,
03-01-1993,03:00,,,,,,,,,
03-01-1993,04:00,,,,,,,,,
03-01-1993,05:00,,,,,,,,,
03-01-1993,06:00,,,,,,,,,
03-01-1993,07:00,,,,,,,,,
03-01-1993,08:00,,,,,,,,,
03-01-1993,09:00,,,,,,,,,
03-01-1993,10:00,,,,,,,,,
03-01-1993,11:00,,,,,,,,,
03-01-1993,12:00,,,,,,,,,
03-01-1993,13:00,,,,,,,,,
03-01-1993,14:00,40,R,ugm-3,50,R,ugm-3,111,R,ugm-3
03-01-1993,15:00,33,R,ugm-3,50,R,ugm-3,99,R,ugm-3
03-01-1993,16:00,26,R,ugm-3,53,R,ugm-3,94,R,ugm-3
03-01-1993,17:00,34,R,ugm-3,59,R,ugm-3,111,R,ugm-3
03-01-1993,18:00,34,R,ugm-3,61,R,ugm-3,113,R,ugm-3
03-01-1993,19:00,30,R,ugm-3,59,R,ugm-3,105,R,ugm-3
03-01-1993,20:00,21,R,ugm-3,53,R,ugm-3,86,R,ugm-3
03-01-1993,21:00,10,R,ugm-3,42,R,ugm-3,57,R,ugm-3
03-01-1993,22:00,8,R,ugm-3,34,R,ugm-3,46,R,ugm-3
03-01-1993,23:00,6,R,ugm-3,32,R,ugm-3,42,R,ugm-3
03-01-1993,24:00,5,R,ugm-3,31,R,ugm-3,38,R,ugm-3
04-01-1993,01:00,4,R,ugm-3,29,R,ugm-3,34,R,ugm-3
04-01-1993,02:00,8,R,ugm-3,19,R,ugm-3,31,R,ugm-3
04-01-1993,03:00,6,R,ugm-3,19,R,ugm-3,29,R,ugm-3
04-01-1993,04:00,4,R,ugm-3,19,R,ugm-3,25,R,ugm-3
04-01-1993,05:00,8,R,ugm-3,21,R,ugm-3,32,R,ugm-3
04-01-1993,06:00,15,R,ugm-3,31,R,ugm-3,53,R,ugm-3
04-01-1993,07:00,41,R,ugm-3,42,R,ugm-3,105,R,ugm-3
04-01-1993,08:00,84,R,ugm-3,52,R,ugm-3,180,R,ugm-3
04-01-1993,09:00,110,R,ugm-3,55,R,ugm-3,223,R,ugm-3
04-01-1993,10:00,113,R,ugm-3,55,R,ugm-3,227,R,ugm-3
04-01-1993,11:00,141,R,ugm-3,55,R,ugm-3,271,R,ugm-3
04-01-1993,12:00,129,R,ugm-3,53,R,ugm-3,250,R,ugm-3
04-01-1993,13:00,96,R,ugm-3,50,R,ugm-3,197,R,ugm-3
04-01-1993,14:00,116,R,ugm-3,55,R,ugm-3,233,R,ugm-3
04-01-1993,15:00,193,R,ugm-3,78,R,ugm-3,372,R,ugm-3
04-01-1993,16:00,269,R,ugm-3,82,R,ugm-3,493,R,ugm-3
04-01-1993,17:00,270,R,ugm-3,76,R,ugm-3,489,R,ugm-3
04-01-1993,18:00,198,R,ugm-3,67,R,ugm-3,369,R,ugm-3
04-01-1993,19:00,138,R,ugm-3,61,R,ugm-3,271,R,ugm-3
04-01-1993,20:00,94,R,ugm-3,53,R,ugm-3,197,R,ugm-3
04-01-1993,21:00,41,R,ugm-3,46,R,ugm-3,109,R,ugm-3
04-01-1993,22:00,20,R,ugm-3,42,R,ugm-3,73,R,ugm-3
04-01-1993,23:00,20,R,ugm-3,42,R,ugm-3,73,R,ugm-3
04-01-1993,24:00,21,R,ugm-3,40,R,ugm-3,73,R,ugm-3
05-01-1993,01:00,10,R,ugm-3,27,R,ugm-3,42,R,ugm-3
05-01-1993,02:00,11,R,ugm-3,23,R,ugm-3,40,R,ugm-3
05-01-1993,03:00,16,R,ugm-3,17,R,ugm-3,42,R,ugm-3
05-01-1993,04:00,20,R,ugm-3,17,R,ugm-3,48,R,ugm-3
05-01-1993,05:00,19,R,ugm-3,21,R,ugm-3,50,R,ugm-3
05-01-1993,06:00,20,R,ugm-3,21,R,ugm-3,52,R,ugm-3
05-01-1993,07:00,29,R,ugm-3,32,R,ugm-3,76,R,ugm-3
05-01-1993,08:00,34,R,ugm-3,40,R,ugm-3,92,R,ugm-3
05-01-1993,09:00,54,R,ugm-3,46,R,ugm-3,128,R,ugm-3
05-01-1993,10:00,90,R,ugm-3,46,R,ugm-3,183,R,ugm-3
05-01-1993,11:00,81,R,ugm-3,46,R,ugm-3,170,R,ugm-3
05-01-1993,12:00,,,,,,,,,
05-01-1993,13:00,76,R,ugm-3,52,R,ugm-3,168,R,ugm-3
05-01-1993,14:00,83,R,ugm-3,48,R,ugm-3,174,R,ugm-3
05-01-1993,15:00,79,R,ugm-3,55,R,ugm-3,176,R,ugm-3
05-01-1993,16:00,110,R,ugm-3,61,R,ugm-3,229,R,ugm-3
05-01-1993,17:00,93,R,ugm-3,57,R,ugm-3,199,R,ugm-3
05-01-1993,18:00,114,R,ugm-3,63,R,ugm-3,237,R,ugm-3
05-01-1993,19:00,110,R,ugm-3,67,R,ugm-3,235,R,ugm-3
05-01-1993,20:00,96,R,ugm-3,69,R,ugm-3,216,R,ugm-3
05-01-1993,21:00,71,R,ugm-3,61,R,ugm-3,170,R,ugm-3
05-01-1993,22:00,71,R,ugm-3,61,R,ugm-3,170,R,ugm-3
05-01-1993,23:00,59,R,ugm-3,57,R,ugm-3,147,R,ugm-3
05-01-1993,24:00,38,R,ugm-3,50,R,ugm-3,107,R,ugm-3
06-01-1993,01:00,30,R,ugm-3,48,R,ugm-3,94,R,ugm-3
06-01-1993,02:00,35,R,ugm-3,50,R,ugm-3,103,R,ugm-3
06-01-1993,03:00,29,R,ugm-3,46,R,ugm-3,90,R,ugm-3
06-01-1993,04:00,9,R,ugm-3,36,R,ugm-3,50,R,ugm-3
06-01-1993,05:00,30,R,ugm-3,50,R,ugm-3,96,R,ugm-3
06-01-1993,06:00,34,R,ugm-3,50,R,ugm-3,101,R,ugm-3
06-01-1993,07:00,55,R,ugm-3,52,R,ugm-3,136,R,ugm-3
06-01-1993,08:00,106,R,ugm-3,53,R,ugm-3,216,R,ugm-3
06-01-1993,09:00,101,R,ugm-3,55,R,ugm-3,210,R,ugm-3
06-01-1993,10:00,116,R,ugm-3,53,R,ugm-3,231,R,ugm-3
06-01-1993,11:00,79,R,ugm-3,52,R,ugm-3,172,R,ugm-3
06-01-1993,12:00,74,R,ugm-3,50,R,ugm-3,162,R,ugm-3
06-01-1993,13:00,74,R,ugm-3,52,R,ugm-3,164,R,ugm-3
06-01-1993,14:00,75,R,ugm-3,53,R,ugm-3,168,R,ugm-3
06-01-1993,15:00,74,R,ugm-3,53,R,ugm-3,166,R,ugm-3
06-01-1993,16:00,109,R,ugm-3,63,R,ugm-3,229,R,ugm-3
06-01-1993,17:00,130,R,ugm-3,59,R,ugm-3,258,R,ugm-3
06-01-1993,18:00,103,R,ugm-3,55,R,ugm-3,212,R,ugm-3
06-01-1993,19:00,113,R,ugm-3,57,R,ugm-3,229,R,ugm-3
06-01-1993,20:00,96,R,ugm-3,55,R,ugm-3,202,R,ugm-3
06-01-1993,21:00,70,R,ugm-3,53,R,ugm-3,160,R,ugm-3
06-01-1993,22:00,106,R,ugm-3,57,R,ugm-3,220,R,ugm-3
06-01-1993,23:00,141,R,ugm-3,59,R,ugm-3,275,R,ugm-3
06-01-1993,24:00,126,R,ugm-3,57,R,ugm-3,250,R,ugm-3
07-01-1993,01:00,175,R,ugm-3,57,R,ugm-3,325,R,ugm-3
07-01-1993,02:00,106,R,ugm-3,52,R,ugm-3,214,R,ugm-3
07-01-1993,03:00,64,R,ugm-3,48,R,ugm-3,145,R,ugm-3
07-01-1993,04:00,33,R,ugm-3,40,R,ugm-3,90,R,ugm-3
07-01-1993,05:00,24,R,ugm-3,40,R,ugm-3,76,R,ugm-3
07-01-1993,06:00,34,R,ugm-3,53,R,ugm-3,105,R,ugm-3
07-01-1993,07:00,71,R,ugm-3,53,R,ugm-3,162,R,ugm-3
07-01-1993,08:00,154,R,ugm-3,59,R,ugm-3,294,R,ugm-3
07-01-1993,09:00,180,R,ugm-3,65,R,ugm-3,340,R,ugm-3
07-01-1993,10:00,89,R,ugm-3,61,R,ugm-3,197,R,ugm-3
07-01-1993,11:00,54,R,ugm-3,52,R,ugm-3,134,R,ugm-3
07-01-1993,12:00,39,R,ugm-3,46,R,ugm-3,105,R,ugm-3
07-01-1993,13:00,39,R,ugm-3,48,R,ugm-3,107,R,ugm-3
07-01-1993,14:00,66,R,ugm-3,55,R,ugm-3,157,R,ugm-3
07-01-1993,15:00,59,R,ugm-3,53,R,ugm-3,143,R,ugm-3
07-01-1993,16:00,55,R,ugm-3,55,R,ugm-3,139,R,ugm-3
07-01-1993,17:00,64,R,ugm-3,55,R,ugm-3,153,R,ugm-3
07-01-1993,18:00,64,R,ugm-3,50,R,ugm-3,147,R,ugm-3
07-01-1993,19:00,45,R,ugm-3,50,R,ugm-3,118,R,ugm-3
07-01-1993,20:00,34,R,ugm-3,44,R,ugm-3,96,R,ugm-3
07-01-1993,21:00,35,R,ugm-3,46,R,ugm-3,99,R,ugm-3
07-01-1993,22:00,21,R,ugm-3,31,R,ugm-3,63,R,ugm-3
07-01-1993,23:00,18,R,ugm-3,31,R,ugm-3,57,R,ugm-3
07-01-1993,24:00,15,R,ugm-3,34,R,ugm-3,57,R,ugm-3
08-01-1993,01:00,11,R,ugm-3,23,R,ugm-3,40,R,ugm-3
08-01-1993,02:00,9,R,ugm-3,25,R,ugm-3,38,R,ugm-3
08-01-1993,03:00,10,R,ugm-3,25,R,ugm-3,40,R,ugm-3
08-01-1993,04:00,10,R,ugm-3,29,R,ugm-3,44,R,ugm-3
08-01-1993,05:00,10,R,ugm-3,25,R,ugm-3,40,R,ugm-3
08-01-1993,06:00,24,R,ugm-3,38,R,ugm-3,74,R,ugm-3
08-01-1993,07:00,90,R,ugm-3,61,R,ugm-3,199,R,ugm-3
08-01-1993,08:00,95,R,ugm-3,63,R,ugm-3,208,R,ugm-3
08-01-1993,09:00,101,R,ugm-3,69,R,ugm-3,223,R,ugm-3
08-01-1993,10:00,113,R,ugm-3,65,R,ugm-3,237,R,ugm-3
08-01-1993,11:00,86,R,ugm-3,59,R,ugm-3,191,R,ugm-3
08-01-1993,12:00,76,R,ugm-3,52,R,ugm-3,168,R,ugm-3
08-01-1993,13:00,61,R,ugm-3,48,R,ugm-3,141,R,ugm-3
08-01-1993,14:00,68,R,ugm-3,48,R,ugm-3,151,R,ugm-3
08-01-1993,15:00,80,R,ugm-3,55,R,ugm-3,178,R,ugm-3
08-01-1993,16:00,94,R,ugm-3,61,R,ugm-3,204,R,ugm-3
08-01-1993,17:00,73,R,ugm-3,63,R,ugm-3,174,R,ugm-3
08-01-1993,18:00,88,R,ugm-3,61,R,ugm-3,195,R,ugm-3
08-01-1993,19:00,54,R,ugm-3,57,R,ugm-3,139,R,ugm-3
08-01-1993,20:00,41,R,ugm-3,55,R,ugm-3,118,R,ugm-3
08-01-1993,21:00,19,R,ugm-3,44,R,ugm-3,73,R,ugm-3
08-01-1993,22:00,9,R,ugm-3,38,R,ugm-3,52,R,ugm-3
08-01-1993,23:00,10,R,ugm-3,32,R,ugm-3,48,R,ugm-3
08-01-1993,24:00,9,R,ugm-3,27,R,ugm-3,40,R,ugm-3
09-01-1993,01:00,8,R,ugm-3,21,R,ugm-3,32,R,ugm-3
09-01-1993,02:00,8,R,ugm-3,21,R,ugm-3,32,R,ugm-3
09-01-1993,03:00,8,R,ugm-3,19,R,ugm-3,31,R,ugm-3
09-01-1993,04:00,8,R,ugm-3,21,R,ugm-3,32,R,ugm-3
09-01-1993,05:00,5,R,ugm-3,21,R,ugm-3,29,R,ugm-3
09-01-1993,06:00,4,R,ugm-3,23,R,ugm-3,29,R,ugm-3
09-01-1993,07:00,8,R,ugm-3,21,R,ugm-3,32,R,ugm-3
09-01-1993,08:00,13,R,ugm-3,29,R,ugm-3,48,R,ugm-3
09-01-1993,09:00,24,R,ugm-3,46,R,ugm-3,82,R,ugm-3
09-01-1993,10:00,26,R,ugm-3,50,R,ugm-3,90,R,ugm-3
09-01-1993,11:00,36,R,ugm-3,46,R,ugm-3,101,R,ugm-3
09-01-1993,12:00,39,R,ugm-3,42,R,ugm-3,101,R,ugm-3
09-01-1993,13:00,31,R,ugm-3,36,R,ugm-3,84,R,ugm-3
09-01-1993,14:00,15,R,ugm-3,25,R,ugm-3,48,R,ugm-3
09-01-1993,15:00,21,R,ugm-3,34,R,ugm-3,67,R,ugm-3
09-01-1993,16:00,19,R,ugm-3,34,R,ugm-3,63,R,ugm-3
09-01-1993,17:00,19,R,ugm-3,32,R,ugm-3,61,R,ugm-3
09-01-1993,18:00,16,R,ugm-3,32,R,ugm-3,57,R,ugm-3
09-01-1993,19:00,16,R,ugm-3,31,R,ugm-3,55,R,ugm-3
09-01-1993,20:00,23,R,ugm-3,38,R,ugm-3,73,R,ugm-3
09-01-1993,21:00,16,R,ugm-3,36,R,ugm-3,61,R,ugm-3
09-01-1993,22:00,14,R,ugm-3,36,R,ugm-3,57,R,ugm-3
09-01-1993,23:00,9,R,ugm-3,31,R,ugm-3,44,R,ugm-3
09-01-1993,24:00,6,R,ugm-3,34,R,ugm-3,44,R,ugm-3
10-01-1993,01:00,8,R,ugm-3,40,R,ugm-3,52,R,ugm-3
10-01-1993,02:00,0,R,ugm-3,38,R,ugm-3,38,R,ugm-3
10-01-1993,03:00,0,R,ugm-3,27,R,ugm-3,27,R,ugm-3
10-01-1993,04:00,1,R,ugm-3,23,R,ugm-3,25,R,ugm-3
10-01-1993,05:00,1,R,ugm-3,27,R,ugm-3,29,R,ugm-3
10-01-1993,06:00,3,R,ugm-3,23,R,ugm-3,27,R,ugm-3
10-01-1993,07:00,1,R,ugm-3,31,R,ugm-3,32,R,ugm-3
10-01-1993,08:00,0,R,ugm-3,29,R,ugm-3,29,R,ugm-3
10-01-1993,09:00,3,R,ugm-3,34,R,ugm-3,38,R,ugm-3
10-01-1993,10:00,3,R,ugm-3,40,R,ugm-3,44,R,ugm-3
10-01-1993,11:00,6,R,ugm-3,38,R,ugm-3,48,R,ugm-3
10-01-1993,12:00,4,R,ugm-3,36,R,ugm-3,42,R,ugm-3
10-01-1993,13:00,8,R,ugm-3,46,R,ugm-3,57,R,ugm-3
10-01-1993,14:00,16,R,ugm-3,53,R,ugm-3,78,R,ugm-3
10-01-1993,15:00,16,R,ugm-3,46,R,ugm-3,71,R,ugm-3
10-01-1993,16:00,16,R,ugm-3,44,R,ugm-3,69,R,ugm-3
10-01-1993,17:00,24,R,ugm-3,61,R,ugm-3,97,R,ugm-3
10-01-1993,18:00,23,R,ugm-3,59,R,ugm-3,94,R,ugm-3
10-01-1993,19:00,16,R,ugm-3,57,R,ugm-3,82,R,ugm-3
10-01-1993,20:00,14,R,ugm-3,44,R,ugm-3,65,R,ugm-3
10-01-1993,21:00,10,R,ugm-3,38,R,ugm-3,53,R,ugm-3
10-01-1993,22:00,9,R,ugm-3,32,R,ugm-3,46,R,ugm-3
10-01-1993,23:00,6,R,ugm-3,29,R,ugm-3,38,R,ugm-3
10-01-1993,24:00,5,R,ugm-3,29,R,ugm-3,36,R,ugm-3
11-01-1993,01:00,4,R,ugm-3,25,R,ugm-3,31,R,ugm-3
11-01-1993,02:00,4,R,ugm-3,23,R,ugm-3,29,R,ugm-3
11-01-1993,03:00,4,R,ugm-3,25,R,ugm-3,31,R,ugm-3
11-01-1993,04:00,3,R,ugm-3,31,R,ugm-3,34,R,ugm-3
11-01-1993,05:00,10,R,ugm-3,42,R,ugm-3,57,R,ugm-3
11-01-1993,06:00,53,R,ugm-3,92,R,ugm-3,172,R,ugm-3
11-01-1993,07:00,41,R,ugm-3,71,R,ugm-3,134,R,ugm-3
11-01-1993,08:00,36,R,ugm-3,65,R,ugm-3,120,R,ugm-3
11-01-1993,09:00,46,R,ugm-3,88,R,ugm-3,159,R,ugm-3
11-01-1993,10:00,40,R,ugm-3,73,R,ugm-3,134,R,ugm-3
11-01-1993,11:00,36,R,ugm-3,61,R,ugm-3,117,R,ugm-3
11-01-1993,12:00,33,R,ugm-3,55,R,ugm-3,105,R,ugm-3
11-01-1993,13:00,40,R,ugm-3,65,R,ugm-3,126,R,ugm-3
11-01-1993,14:00,44,R,ugm-3,74,R,ugm-3,141,R,ugm-3
11-01-1993,15:00,39,R,ugm-3,69,R,ugm-3,128,R,ugm-3
11-01-1993,16:00,48,R,ugm-3,74,R,ugm-3,147,R,ugm-3
11-01-1993,17:00,51,R,ugm-3,88,R,ugm-3,166,R,ugm-3
11-01-1993,18:00,61,R,ugm-3,96,R,ugm-3,189,R,ugm-3
11-01-1993,19:00,39,R,ugm-3,71,R,ugm-3,130,R,ugm-3
11-01-1993,20:00,25,R,ugm-3,53,R,ugm-3,92,R,ugm-3
11-01-1993,21:00,20,R,ugm-3,38,R,ugm-3,69,R,ugm-3
11-01-1993,22:00,18,R,ugm-3,40,R,ugm-3,67,R,ugm-3
11-01-1993,23:00,18,R,ugm-3,46,R,ugm-3,73,R,ugm-3
11-01-1993,24:00,16,R,ugm-3,48,R,ugm-3,73,R,ugm-3
12-01-1993,01:00,9,R,ugm-3,42,R,ugm-3,55,R,ugm-3
12-01-1993,02:00,8,R,ugm-3,38,R,ugm-3,50,R,ugm-3
12-01-1993,03:00,10,R,ugm-3,44,R,ugm-3,59,R,ugm-3
12-01-1993,04:00,8,R,ugm-3,34,R,ugm-3,46,R,ugm-3
12-01-1993,05:00,13,R,ugm-3,40,R,ugm-3,59,R,ugm-3
12-01-1993,06:00,31,R,ugm-3,52,R,ugm-3,99,R,ugm-3
12-01-1993,07:00,65,R,ugm-3,65,R,ugm-3,164,R,ugm-3
12-01-1993,08:00,80,R,ugm-3,73,R,ugm-3,195,R,ugm-3
12-01-1993,09:00,66,R,ugm-3,69,R,ugm-3,170,R,ugm-3
12-01-1993,10:00,71,R,ugm-3,63,R,ugm-3,172,R,ugm-3
12-01-1993,11:00,53,R,ugm-3,55,R,ugm-3,136,R,ugm-3
12-01-1993,12:00,61,R,ugm-3,55,R,ugm-3,149,R,ugm-3
12-01-1993,13:00,43,R,ugm-3,44,R,ugm-3,109,R,ugm-3
12-01-1993,14:00,40,R,ugm-3,42,R,ugm-3,103,R,ugm-3
12-01-1993,15:00,45,R,ugm-3,48,R,ugm-3,117,R,ugm-3
12-01-1993,16:00,40,R,ugm-3,53,R,ugm-3,115,R,ugm-3
12-01-1993,17:00,,,,,,,,,
12-01-1993,18:00,,,,,,,,,
12-01-1993,19:00,55,R,ugm-3,55,R,ugm-3,139,R,ugm-3
12-01-1993,20:00,54,R,ugm-3,55,R,ugm-3,138,R,ugm-3
12-01-1993,21:00,49,R,ugm-3,63,R,ugm-3,138,R,ugm-3
12-01-1993,22:00,39,R,ugm-3,63,R,ugm-3,122,R,ugm-3
12-01-1993,23:00,21,R,ugm-3,46,R,ugm-3,78,R,ugm-3
12-01-1993,24:00,16,R,ugm-3,42,R,ugm-3,67,R,ugm-3
13-01-1993,01:00,14,R,ugm-3,36,R,ugm-3,57,R,ugm-3
13-01-1993,02:00,8,R,ugm-3,32,R,ugm-3,44,R,ugm-3
13-01-1993,03:00,8,R,ugm-3,34,R,ugm-3,46,R,ugm-3
13-01-1993,04:00,5,R,ugm-3,34,R,ugm-3,42,R,ugm-3
13-01-1993,05:00,6,R,ugm-3,38,R,ugm-3,48,R,ugm-3
13-01-1993,06:00,14,R,ugm-3,44,R,ugm-3,65,R,ugm-3
13-01-1993,07:00,20,R,ugm-3,61,R,ugm-3,92,R,ugm-3
13-01-1993,08:00,36,R,ugm-3,74,R,ugm-3,130,R,ugm-3
13-01-1993,09:00,33,R,ugm-3,67,R,ugm-3,117,R,ugm-3
13-01-1993,10:00,45,R,ugm-3,67,R,ugm-3,136,R,ugm-3
13-01-1993,11:00,29,R,ugm-3,67,R,ugm-3,111,R,ugm-3
13-01-1993,12:00,23,R,ugm-3,71,R,ugm-3,105,R,ugm-3
13-01-1993,13:00,40,R,ugm-3,76,R,ugm-3,138,R,ugm-3
13-01-1993,14:00,29,R,ugm-3,69,R,ugm-3,113,R,ugm-3
13-01-1993,15:00,21,R,ugm-3,67,R,ugm-3,99,R,ugm-3
13-01-1993,16:00,75,R,ugm-3,69,R,ugm-3,183,R,ugm-3
13-01-1993,17:00,61,R,ugm-3,65,R,ugm-3,159,R,ugm-3
13-01-1993,18:00,58,R,ugm-3,65,R,ugm-3,153,R,ugm-3
13-01-1993,19:00,54,R,ugm-3,57,R,ugm-3,139,R,ugm-3
13-01-1993,20:00,56,R,ugm-3,55,R,ugm-3,141,R,ugm-3
13-01-1993,21:00,38,R,ugm-3,55,R,ugm-3,113,R,ugm-3
13-01-1993,22:00,33,R,ugm-3,46,R,ugm-3,96,R,ugm-3
13-01-1993,23:00,40,R,ugm-3,59,R,ugm-3,120,R,ugm-3
13-01-1993,24:00,31,R,ugm-3,53,R,ugm-3,101,R,ugm-3
14-01-1993,01:00,29,R,ugm-3,46,R,ugm-3,90,R,ugm-3
14-01-1993,02:00,15,R,ugm-3,38,R,ugm-3,61,R,ugm-3
14-01-1993,03:00,18,R,ugm-3,32,R,ugm-3,59,R,ugm-3
14-01-1993,04:00,10,R,ugm-3,29,R,ugm-3,44,R,ugm-3
14-01-1993,05:00,13,R,ugm-3,25,R,ugm-3,44,R,ugm-3
14-01-1993,06:00,25,R,ugm-3,36,R,ugm-3,74,R,ugm-3
14-01-1993,07:00,83,R,ugm-3,59,R,ugm-3,185,R,ugm-3
14-01-1993,08:00,119,R,ugm-3,69,R,ugm-3,250,R,ugm-3
14-01-1993,09:00,149,R,ugm-3,74,R,ugm-3,302,R,ugm-3
14-01-1993,10:00,149,R,ugm-3,71,R,ugm-3,298,R,ugm-3
14-01-1993,11:00,100,R,ugm-3,57,R,ugm-3,210,R,ugm-3
14-01-1993,12:00,84,R,ugm-3,52,R,ugm-3,180,R,ugm-3
14-01-1993,13:00,85,R,ugm-3,53,R,ugm-3,183,R,ugm-3
14-01-1993,14:00,71,R,ugm-3,53,R,ugm-3,162,R,ugm-3
14-01-1993,15:00,68,R,ugm-3,59,R,ugm-3,162,R,ugm-3
14-01-1993,16:00,59,R,ugm-3,65,R,ugm-3,155,R,ugm-3
14-01-1993,17:00,56,R,ugm-3,67,R,ugm-3,153,R,ugm-3
14-01-1993,18:00,68,R,ugm-3,61,R,ugm-3,164,R,ugm-3
14-01-1993,19:00,39,R,ugm-3,52,R,ugm-3,111,R,ugm-3
14-01-1993,20:00,26,R,ugm-3,48,R,ugm-3,88,R,ugm-3
14-01-1993,21:00,18,R,ugm-3,46,R,ugm-3,73,R,ugm-3
14-01-1993,22:00,14,R,ugm-3,32,R,ugm-3,53,R,ugm-3
14-01-1993,23:00,9,R,ugm-3,29,R,ugm-3,42,R,ugm-3
14-01-1993,24:00,9,R,ugm-3,21,R,ugm-3,34,R,ugm-3
15-01-1993,01:00,8,R,ugm-3,15,R,ugm-3,27,R,ugm-3
15-01-1993,02:00,14,R,ugm-3,15,R,ugm-3,36,R,ugm-3
15-01-1993,03:00,10,R,ugm-3,21,R,ugm-3,36,R,ugm-3
15-01-1993,04:00,10,R,ugm-3,17,R,ugm-3,32,R,ugm-3
15-01-1993,05:00,5,R,ugm-3,21,R,ugm-3,29,R,ugm-3
15-01-1993,06:00,8,R,ugm-3,31,R,ugm-3,42,R,ugm-3
15-01-1993,07:00,11,R,ugm-3,34,R,ugm-3,52,R,ugm-3
15-01-1993,08:00,9,R,ugm-3,40,R,ugm-3,53,R,ugm-3
15-01-1993,09:00,14,R,ugm-3,42,R,ugm-3,63,R,ugm-3
15-01-1993,10:00,26,R,ugm-3,46,R,ugm-3,86,R,ugm-3
15-01-1993,11:00,35,R,ugm-3,40,R,ugm-3,94,R,ugm-3
15-01-1993,12:00,41,R,ugm-3,44,R,ugm-3,107,R,ugm-3
15-01-1993,13:00,39,R,ugm-3,42,R,ugm-3,101,R,ugm-3
15-01-1993,14:00,35,R,ugm-3,34,R,ugm-3,88,R,ugm-3
15-01-1993,15:00,38,R,ugm-3,42,R,ugm-3,99,R,ugm-3
15-01-1993,16:00,31,R,ugm-3,36,R,ugm-3,84,R,ugm-3
15-01-1993,17:00,23,R,ugm-3,32,R,ugm-3,67,R,ugm-3
15-01-1993,18:00,25,R,ugm-3,36,R,ugm-3,74,R,ugm-3
15-01-1993,19:00,30,R,ugm-3,34,R,ugm-3,80,R,ugm-3
15-01-1993,20:00,29,R,ugm-3,38,R,ugm-3,82,R,ugm-3
15-01-1993,21:00,24,R,ugm-3,32,R,ugm-3,69,R,ugm-3
15-01-1993,22:00,18,R,ugm-3,32,R,ugm-3,59,R,ugm-3
15-01-1993,23:00,13,R,ugm-3,29,R,ugm-3,48,R,ugm-3
15-01-1993,24:00,8,R,ugm-3,27,R,ugm-3,38,R,ugm-3
16-01-1993,01:00,8,R,ugm-3,29,R,ugm-3,40,R,ugm-3
16-01-1993,02:00,5,R,ugm-3,25,R,ugm-3,32,R,ugm-3
16-01-1993,03:00,5,R,ugm-3,34,R,ugm-3,42,R,ugm-3
16-01-1993,04:00,3,R,ugm-3,27,R,ugm-3,31,R,ugm-3
16-01-1993,05:00,4,R,ugm-3,27,R,ugm-3,32,R,ugm-3
16-01-1993,06:00,5,R,ugm-3,32,R,ugm-3,40,R,ugm-3
16-01-1993,07:00,8,R,ugm-3,34,R,ugm-3,46,R,ugm-3
16-01-1993,08:00,14,R,ugm-3,42,R,ugm-3,63,R,ugm-3
16-01-1993,09:00,21,R,ugm-3,44,R,ugm-3,76,R,ugm-3
16-01-1993,10:00,28,R,ugm-3,46,R,ugm-3,88,R,ugm-3
16-01-1993,11:00,26,R,ugm-3,44,R,ugm-3,84,R,ugm-3
16-01-1993,12:00,25,R,ugm-3,32,R,ugm-3,71,R,ugm-3
16-01-1993,13:00,16,R,ugm-3,34,R,ugm-3,59,R,ugm-3
16-01-1993,14:00,13,R,ugm-3,32,R,ugm-3,52,R,ugm-3
16-01-1993,15:00,18,R,ugm-3,34,R,ugm-3,61,R,ugm-3
16-01-1993,16:00,15,R,ugm-3,40,R,ugm-3,63,R,ugm-3
16-01-1993,17:00,11,R,ugm-3,36,R,ugm-3,53,R,ugm-3
16-01-1993,18:00,10,R,ugm-3,34,R,ugm-3,50,R,ugm-3
16-01-1993,19:00,8,R,ugm-3,31,R,ugm-3,42,R,ugm-3
16-01-1993,20:00,5,R,ugm-3,31,R,ugm-3,38,R,ugm-3
16-01-1993,21:00,3,R,ugm-3,27,R,ugm-3,31,R,ugm-3
16-01-1993,22:00,3,R,ugm-3,25,R,ugm-3,29,R,ugm-3
16-01-1993,23:00,3,R,ugm-3,25,R,ugm-3,29,R,ugm-3
16-01-1993,24:00,4,R,ugm-3,25,R,ugm-3,31,R,ugm-3
17-01-1993,01:00,6,R,ugm-3,29,R,ugm-3,38,R,ugm-3
17-01-1993,02:00,5,R,ugm-3,23,R,ugm-3,31,R,ugm-3
17-01-1993,03:00,8,R,ugm-3,19,R,ugm-3,31,R,ugm-3
17-01-1993,04:00,3,R,ugm-3,15,R,ugm-3,19,R,ugm-3
17-01-1993,05:00,3,R,ugm-3,10,R,ugm-3,13,R,ugm-3
17-01-1993,06:00,0,R,ugm-3,13,R,ugm-3,13,R,ugm-3
17-01-1993,07:00,1,R,ugm-3,17,R,ugm-3,19,R,ugm-3
17-01-1993,08:00,5,R,ugm-3,19,R,ugm-3,27,R,ugm-3
17-01-1993,09:00,8,R,ugm-3,15,R,ugm-3,27,R,ugm-3
17-01-1993,10:00,11,R,ugm-3,25,R,ugm-3,42,R,ugm-3
17-01-1993,11:00,14,R,ugm-3,23,R,ugm-3,44,R,ugm-3
17-01-1993,12:00,15,R,ugm-3,29,R,ugm-3,52,R,ugm-3
17-01-1993,13:00,15,R,ugm-3,27,R,ugm-3,50,R,ugm-3
17-01-1993,14:00,16,R,ugm-3,36,R,ugm-3,61,R,ugm-3
17-01-1993,15:00,25,R,ugm-3,36,R,ugm-3,74,R,ugm-3
17-01-1993,16:00,34,R,ugm-3,40,R,ugm-3,92,R,ugm-3
17-01-1993,17:00,46,R,ugm-3,50,R,ugm-3,120,R,ugm-3
17-01-1993,18:00,44,R,ugm-3,50,R,ugm-3,117,R,ugm-3
17-01-1993,19:00,51,R,ugm-3,52,R,ugm-3,130,R,ugm-3
17-01-1993,20:00,50,R,ugm-3,53,R,ugm-3,130,R,ugm-3
17-01-1993,21:00,48,R,ugm-3,57,R,ugm-3,130,R,ugm-3
17-01-1993,22:00,35,R,ugm-3,46,R,ugm-3,99,R,ugm-3
17-01-1993,23:00,23,R,ugm-3,44,R,ugm-3,78,R,ugm-3
17-01-1993,24:00,18,R,ugm-3,42,R,ugm-3,69,R,ugm-3
18-01-1993,01:00,8,R,ugm-3,29,R,ugm-3,40,R,ugm-3
18-01-1993,02:00,1,R,ugm-3,29,R,ugm-3,31,R,ugm-3
18-01-1993,03:00,3,R,ugm-3,25,R,ugm-3,29,R,ugm-3
18-01-1993,04:00,3,R,ugm-3,29,R,ugm-3,32,R,ugm-3
18-01-1993,05:00,11,R,ugm-3,38,R,ugm-3,55,R,ugm-3
18-01-1993,06:00,30,R,ugm-3,48,R,ugm-3,94,R,ugm-3
18-01-1993,07:00,85,R,ugm-3,59,R,ugm-3,189,R,ugm-3
18-01-1993,08:00,144,R,ugm-3,73,R,ugm-3,292,R,ugm-3
18-01-1993,09:00,145,R,ugm-3,71,R,ugm-3,292,R,ugm-3
18-01-1993,10:00,139,R,ugm-3,73,R,ugm-3,285,R,ugm-3
18-01-1993,11:00,60,R,ugm-3,63,R,ugm-3,155,R,ugm-3
18-01-1993,12:00,71,R,ugm-3,55,R,ugm-3,164,R,ugm-3
18-01-1993,13:00,73,R,ugm-3,53,R,ugm-3,164,R,ugm-3
18-01-1993,14:00,56,R,ugm-3,55,R,ugm-3,141,R,ugm-3
18-01-1993,15:00,55,R,ugm-3,57,R,ugm-3,141,R,ugm-3
18-01-1993,16:00,53,R,ugm-3,61,R,ugm-3,141,R,ugm-3
18-01-1993,17:00,,,,,,,,,
18-01-1993,18:00,,,,,,,,,
18-01-1993,19:00,,,,,,,,,
18-01-1993,20:00,19,R,ugm-3,46,R,ugm-3,74,R,ugm-3
18-01-1993,21:00,20,R,ugm-3,42,R,ugm-3,73,R,ugm-3
18-01-1993,22:00,14,R,ugm-3,32,R,ugm-3,53,R,ugm-3
18-01-1993,23:00,10,R,ugm-3,27,R,ugm-3,42,R,ugm-3
18-01-1993,24:00,8,R,ugm-3,23,R,ugm-3,34,R,ugm-3
19-01-1993,01:00,9,R,ugm-3,23,R,ugm-3,36,R,ugm-3
19-01-1993,02:00,6,R,ugm-3,11,R,ugm-3,21,R,ugm-3
19-01-1993,03:00,6,R,ugm-3,13,R,ugm-3,23,R,ugm-3
19-01-1993,04:00,6,R,ugm-3,19,R,ugm-3,29,R,ugm-3
19-01-1993,05:00,14,R,ugm-3,31,R,ugm-3,52,R,ugm-3
19-01-1993,06:00,36,R,ugm-3,48,R,ugm-3,103,R,ugm-3
19-01-1993,07:00,106,R,ugm-3,69,R,ugm-3,231,R,ugm-3
19-01-1993,08:00,200,R,ugm-3,80,R,ugm-3,386,R,ugm-3
19-01-1993,09:00,141,R,ugm-3,80,R,ugm-3,296,R,ugm-3
19-01-1993,10:00,130,R,ugm-3,74,R,ugm-3,273,R,ugm-3
19-01-1993,11:00,123,R,ugm-3,73,R,ugm-3,260,R,ugm-3
19-01-1993,12:00,91,R,ugm-3,69,R,ugm-3,208,R,ugm-3
19-01-1993,13:00,81,R,ugm-3,71,R,ugm-3,195,R,ugm-3
19-01-1993,14:00,91,R,ugm-3,71,R,ugm-3,210,R,ugm-3
19-01-1993,15:00,76,R,ugm-3,74,R,ugm-3,191,R,ugm-3
19-01-1993,16:00,66,R,ugm-3,69,R,ugm-3,170,R,ugm-3
19-01-1993,17:00,51,R,ugm-3,65,R,ugm-3,143,R,ugm-3
19-01-1993,18:00,40,R,ugm-3,61,R,ugm-3,122,R,ugm-3
19-01-1993,19:00,36,R,ugm-3,53,R,ugm-3,109,R,ugm-3
19-01-1993,20:00,31,R,ugm-3,48,R,ugm-3,96,R,ugm-3
19-01-1993,21:00,29,R,ugm-3,48,R,ugm-3,92,R,ugm-3
19-01-1993,22:00,19,R,ugm-3,36,R,ugm-3,65,R,ugm-3
19-01-1993,23:00,14,R,ugm-3,25,R,ugm-3,46,R,ugm-3
19-01-1993,24:00,11,R,ugm-3,23,R,ugm-3,40,R,ugm-3
20-01-1993,01:00,9,R,ugm-3,27,R,ugm-3,40,R,ugm-3
20-01-1993,02:00,5,R,ugm-3,23,R,ugm-3,31,R,ugm-3
20-01-1993,03:00,6,R,ugm-3,23,R,ugm-3,32,R,ugm-3
20-01-1993,04:00,5,R,ugm-3,21,R,ugm-3,29,R,ugm-3
20-01-1993,05:00,9,R,ugm-3,27,R,ugm-3,40,R,ugm-3
20-01-1993,06:00,24,R,ugm-3,48,R,ugm-3,84,R,ugm-3
20-01-1993,07:00,56,R,ugm-3,59,R,ugm-3,145,R,ugm-3
20-01-1993,08:00,59,R,ugm-3,59,R,ugm-3,149,R,ugm-3
20-01-1993,09:00,73,R,ugm-3,71,R,ugm-3,181,R,ugm-3
20-01-1993,10:00,74,R,ugm-3,67,R,ugm-3,180,R,ugm-3
20-01-1993,11:00,48,R,ugm-3,52,R,ugm-3,124,R,ugm-3
20-01-1993,12:00,41,R,ugm-3,48,R,ugm-3,111,R,ugm-3
20-01-1993,13:00,44,R,ugm-3,48,R,ugm-3,115,R,ugm-3
20-01-1993,14:00,41,R,ugm-3,48,R,ugm-3,111,R,ugm-3
20-01-1993,15:00,45,R,ugm-3,52,R,ugm-3,120,R,ugm-3
20-01-1993,16:00,49,R,ugm-3,53,R,ugm-3,128,R,ugm-3
20-01-1993,17:00,44,R,ugm-3,52,R,ugm-3,118,R,ugm-3
20-01-1993,18:00,28,R,ugm-3,44,R,ugm-3,86,R,ugm-3
20-01-1993,19:00,44,R,ugm-3,55,R,ugm-3,122,R,ugm-3
20-01-1993,20:00,34,R,ugm-3,50,R,ugm-3,101,R,ugm-3
20-01-1993,21:00,33,R,ugm-3,50,R,ugm-3,99,R,ugm-3
20-01-1993,22:00,24,R,ugm-3,46,R,ugm-3,82,R,ugm-3
20-01-1993,23:00,13,R,ugm-3,29,R,ugm-3,48,R,ugm-3
20-01-1993,24:00,10,R,ugm-3,31,R,ugm-3,46,R,ugm-3